DW9996 Weather Reports


time (UTC)temp
F
wind
direction
speed
knots
gust
knots
rain 1hr
in
rain 24hr
in
rain mn
in
humidity
%
barometer
mb
20260902113058 53 277 0.9 3.5 0.00 0.00 0.00 68 1002.2
20260902111557 53 269 0.9 2.6 0.00 0.00 0.00 68 1002.5
20260902110056 53 253 0.9 3.5 0.00 0.00 0.00 65 1002.4
20260902104554 55 227 0.9 4.3 0.00 0.00 0.00 64 1002.2
20260902103054 56 227 1.7 5.2 0.00 0.00 0.00 62 1002.3
20260902101551 56 194 3.5 5.2 0.00 0.00 0.00 60 1002.5
20260902100059 56 169 1.7 3.5 0.00 0.00 0.00 60 1002.6
20260902094601 53 192 2.6 4.3 0.00 0.00 0.00 66 1002.7
20260902093048 53 321 0.0 0.0 0.00 0.00 0.00 65 1002.6
20260902091555 52 321 0.0 0.0 0.00 0.00 0.00 65 1002.9
20260902090046 51 317 0.0 2.6 0.00 0.00 0.00 66 1002.9
20260902084544 51 299 0.9 3.5 0.00 0.00 0.00 65 1003.1
20260902083040 54 309 0.9 4.3 0.00 0.00 0.00 61 1003.0
20260902081536 56 273 2.6 4.3 0.00 0.00 0.00 56 1003.0
20260902080035 60 315 1.7 3.5 0.00 0.00 0.00 54 1002.7
20260902074535 58 45 1.7 3.5 0.00 0.00 0.00 56 1002.7
20260902073034 58 96 0.0 2.6 0.00 0.00 0.00 55 1002.8
20260902071530 56 96 0.0 0.0 0.00 0.00 0.00 58 1002.8
20260902070028 58 96 0.0 0.0 0.00 0.00 0.00 56 1002.8
20260902064527 57 108 0.0 0.0 0.00 0.00 0.00 56 1002.8
20260902063024 58 108 0.0 0.0 0.00 0.00 0.00 55 1002.9
20260902061539 59 108 0.0 0.0 0.00 0.00 0.00 52 1003.0
20260902060016 62 108 0.0 0.0 0.00 0.00 0.00 49 1003.1
20260902054516 64 108 0.0 0.0 0.00 0.00 0.00 46 1003.1
20260902053016 65 108 0.0 0.0 0.00 0.00 0.00 45 1003.1
20260902051514 66 108 0.0 0.0 0.00 0.00 0.00 44 1003.2
20260902050014 66 140 0.0 1.7 0.00 0.00 0.00 44 1003.2
20260902044513 66 149 0.0 2.6 0.00 0.00 0.00 44 1003.3
20260902043012 66 195 1.7 3.5 0.00 0.00 0.00 44 1003.3
20260902041512 67 167 0.0 3.5 0.00 0.00 0.00 43 1003.4
20260902040013 67 169 1.7 4.3 0.00 0.00 0.00 43 1003.5
20260902034513 68 164 0.0 4.3 0.00 0.00 0.00 41 1003.6
20260902033022 69 190 2.6 6.1 0.00 0.00 0.00 40 1003.6
20260902031511 70 192 4.3 7.0 0.00 0.00 0.00 39 1003.6
20260902030009 70 189 4.3 7.0 0.00 0.00 0.00 39 1003.5
20260902024509 70 175 4.3 6.1 0.00 0.00 0.00 38 1003.4
20260902023008 71 201 4.3 6.1 0.00 0.00 0.00 36 1003.4
20260902021522 74 179 0.0 1.7 0.00 0.00 0.00 30 1003.4
20260902020011 75 149 0.0 0.9 0.00 0.00 0.00 29 1003.4
20260902014507 77 149 0.0 1.7 0.00 0.00 0.00 27 1003.4
20260902013006 79 135 0.9 3.5 0.00 0.00 0.00 26 1003.5
20260902011505 81 134 2.6 7.0 0.00 0.00 0.00 25 1003.5
20260902010010 82 124 2.6 7.0 0.00 0.00 0.00 24 1003.4
20260902004512 82 117 3.5 7.8 0.00 0.00 0.00 23 1003.4
20260902003004 83 108 2.6 7.0 0.00 0.00 0.00 23 1003.5
20260902001503 83 136 3.5 7.0 0.00 0.00 0.00 23 1003.5
20260902000001 83 151 2.6 8.7 0.00 0.00 0.00 23 1003.7
20260901234601 84 117 4.3 9.6 0.00 0.00 0.00 21 1003.8
20260901233102 84 134 5.2 9.6 0.00 0.00 0.00 21 1003.9
20260901231558 84 124 5.2 9.6 0.00 0.00 0.00 22 1004.1
20260901230056 84 146 4.3 9.6 0.00 0.00 0.00 22 1004.3
20260901224557 82 134 3.5 8.7 0.00 0.00 0.00 23 1004.4
20260901223053 83 132 4.3 10.4 0.00 0.00 0.00 23 1004.6
20260901221551 84 119 5.2 10.4 0.00 0.00 0.00 22 1004.8
20260901220049 83 129 2.6 7.8 0.00 0.00 0.00 22 1004.9
20260901214552 82 155 4.3 9.6 0.00 0.00 0.00 22 1005.1
20260901213046 84 114 6.1 12.2 0.00 0.00 0.00 21 1005.3
20260901211545 84 176 5.2 13.9 0.00 0.00 0.00 23 1005.4
20260901210044 84 195 7.0 13.9 0.00 0.00 0.00 22 1005.4
20260901204539 83 106 6.1 11.3 0.00 0.00 0.00 24 1005.6
20260901203041 82 125 7.0 11.3 0.00 0.00 0.00 25 1005.9
20260901201532 80 107 6.1 7.8 0.00 0.00 0.00 26 1006.1
20260901200030 79 111 0.9 10.4 0.00 0.00 0.00 28 1006.3
20260901194529 79 210 1.7 7.0 0.00 0.00 0.00 28 1006.5
20260901193025 78 112 3.5 9.6 0.00 0.00 0.00 30 1006.8
20260901191523 77 90 5.2 9.6 0.00 0.00 0.00 29 1006.9
20260901190031 78 134 3.5 7.0 0.00 0.00 0.00 29 1007.1
20260901184526 77 114 3.5 13.0 0.00 0.00 0.00 31 1007.4
20260901183015 76 90 6.1 12.2 0.00 0.00 0.00 32 1007.6
20260901181524 76 132 5.2 11.3 0.00 0.00 0.00 33 1007.7
20260901180015 77 137 6.1 8.7 0.00 0.00 0.00 32 1007.7
20260901174515 77 112 2.6 9.6 0.00 0.00 0.00 31 1007.8
20260901173019 75 160 5.2 9.6 0.00 0.00 0.00 34 1008.0
20260901171505 73 135 4.3 9.6 0.00 0.00 0.00 37 1008.1
20260901170003 73 124 6.1 9.6 0.00 0.00 0.00 37 1008.3
20260901164600 71 168 1.7 7.0 0.00 0.00 0.00 41 1008.5
20260901163059 70 125 2.6 6.1 0.00 0.00 0.00 41 1008.6
20260901161552 69 148 2.6 5.2 0.00 0.00 0.00 44 1008.7
20260901160050 68 145 0.0 2.6 0.00 0.00 0.00 47 1008.9
20260901154546 65 316 0.0 2.6 0.00 0.00 0.00 52 1009.1
20260901153042 64 300 0.9 3.5 0.00 0.00 0.00 55 1009.1
20260901151542 62 301 0.0 0.0 0.00 0.00 0.00 60 1009.0
20260901150035 59 287 0.0 2.6 0.00 0.00 0.00 64 1009.1
20260901144533 58 299 0.9 3.5 0.00 0.00 0.00 67 1009.1
20260901143032 55 315 0.0 4.3 0.00 0.00 0.00 71 1009.1
20260901141531 53 336 0.9 3.5 0.00 0.00 0.00 75 1009.1
20260901140033 50 308 0.9 2.6 0.00 0.00 0.00 75 1009.0
20260901134534 48 306 0.9 3.5 0.00 0.00 0.00 75 1009.0
20260901133029 46 308 1.7 3.5 0.00 0.00 0.00 74 1009.0
20260901131534 44 313 0.9 3.5 0.00 0.00 0.00 75 1009.0
20260901130032 44 317 0.9 3.5 0.00 0.00 0.00 74 1009.0
20260901124528 43 305 0.9 2.6 0.00 0.00 0.00 75 1008.8
20260901123028 43 313 1.7 3.5 0.00 0.00 0.00 75 1008.7
20260901121529 43 312 1.7 4.3 0.00 0.00 0.00 76 1008.8
20260901120023 44 313 1.7 4.3 0.00 0.00 0.00 76 1008.9
20260901114520 46 309 0.0 1.7 0.00 0.00 0.00 74 1009.0